[[{"header":{"parameterUnit":"m.s-1","parameterCategory":1,"la1":30.2991,"la2":30.254,"lo1":-89.0895,"lo2":-89.0444,"dy":0.0017,"dx":0.0017,"nx":28,"ny":28,"refTime":"2025-02-08T09:00:00:Z","depth":0,"parameterNumber":2,"parameterNumberName":"U-component_of_WINDS"},"data":[0,0,0,0,0,0,0,0,0,0,0,0,0,0,0,0,0,0,0,0,0,0,0,0,0,0,0,0,0,0,0,0,0,0,0,0,0,0,0,0,0,0,0,0,0,0,0,0,0,0,0,0,0,0,0,0,0,0,-0.8035,-0.8034,0,-0.8001,-0.8,-0.8,-0.7977,-0.7976,-0.7976,-0.7976,-0.794,-0.794,-0.7939,0,0,0,0,0,0,0,0,0,0,0,0,0,-0.8078,-0.8078,-0.8035,-0.8034,-0.8034,-0.8001,-0.8,-0.8,-0.7977,-0.7976,-0.7976,-0.7976,-0.7941,-0.794,-0.7939,0,0,0,0,0,0,0,0,0,0,0,0,0,-0.8053,-0.8078,-0.8035,-0.8018,-0.8016,-0.8001,-0.8,-0.8,-0.7977,-0.7976,-0.7976,-0.7976,-0.7941,-0.794,-0.7939,-0.7937,0,0,-0.7935,-0.7935,0,0,0,0,0,0,0,0,-0.8055,-0.8052,-0.8021,-0.8019,-0.8017,-0.7993,-0.8003,-0.7979,-0.7977,-0.7992,-0.7976,-0.7976,-0.7958,-0.7955,-0.795,-0.7935,-0.7933,-0.7935,-0.7934,-0.7934,-0.7933,0,0,0,0,0,0,0,-0.8057,-0.8053,-0.8021,-0.8021,-0.8018,-0.8012,-0.8008,-0.7998,-0.7977,-0.799,-0.7989,-0.7985,-0.7957,-0.7951,-0.7949,-0.7933,-0.7935,-0.7934,-0.7933,-0.7933,-0.7914,-0.7914,0,0,0,0,0,0,-0.8061,-0.8055,-0.8022,-0.802,-0.8036,-0.8012,-0.8007,-0.8001,-0.7977,-0.7973,-0.7985,-0.7984,-0.7953,-0.795,-0.7947,-0.7942,-0.7934,-0.7933,-0.7932,-0.7914,-0.7914,-0.7914,0,0,0,0,0,0,-0.8062,-0.8058,-0.8024,-0.8037,-0.8032,-0.8011,-0.8004,-0.8,-0.7994,-0.7973,-0.7969,-0.7983,-0.7953,-0.7949,-0.7939,-0.7941,-0.7932,-0.7931,-0.7913,-0.7914,-0.7914,-0.7933,0,0,0,0,0,0,-0.8063,-0.8059,-0.8058,-0.8037,-0.8031,-0.8017,-0.8004,-0.8,-0.7992,-0.799,-0.797,-0.7966,-0.7952,-0.7941,-0.7938,-0.7939,-0.793,-0.7913,-0.7913,-0.7914,-0.7932,-0.7934,-0.7936,0,0,0,0,0,-0.8065,-0.8065,-0.8058,-0.8054,-0.803,-0.8017,-0.8013,-0.7998,-0.7992,-0.7991,-0.7977,-0.7967,-0.7941,-0.794,-0.7937,-0.7937,-0.7913,-0.7913,-0.7914,-0.7931,-0.7934,-0.7936,0,0,0,0,0,0,-0.8086,-0.8062,-0.8054,-0.8047,-0.8034,-0.8013,-0.8011,-0.8001,-0.7989,-0.7988,-0.7968,-0.7964,-0.7956,-0.7946,-0.7945,-0.7934,-0.7926,-0.7925,-0.794,-0.7942,-0.7944,-0.7946,-0.7929,0,0,0,0,0,-0.809,-0.8082,-0.8061,-0.8057,-0.8051,-0.8032,-0.8026,-0.8015,-0.8,-0.7995,-0.798,-0.7967,-0.7955,-0.7948,-0.7937,-0.7931,-0.7926,-0.7929,-0.7931,-0.7933,-0.7932,-0.7928,-0.7929,-0.7916,-0.7916,-0.7916,0,0,-0.8098,-0.8084,-0.808,-0.8061,-0.8049,-0.804,-0.8027,-0.8019,-0.8012,-0.7993,-0.7983,-0.7972,-0.7955,-0.7947,-0.7943,-0.7939,-0.7935,-0.7933,-0.7935,-0.7933,-0.7928,-0.7929,-0.7931,-0.7916,-0.7916,-0.7916,0,0,-0.8108,-0.8097,-0.8092,-0.808,-0.8064,-0.8051,-0.805,-0.803,-0.8022,-0.8012,-0.7997,-0.7989,-0.797,-0.7959,-0.795,-0.7956,-0.7945,-0.7953,-0.7961,-0.7956,-0.7957,-0.7958,-0.7959,-0.796,-0.7952,-0.7953,-0.7953,0,-0.812,-0.8106,-0.809,-0.8082,-0.8074,-0.8057,-0.8051,-0.8041,-0.8021,-0.8016,-0.8011,-0.7987,-0.7975,-0.7964,-0.7965,-0.7959,-0.7957,-0.7954,-0.7959,-0.7959,-0.796,-0.7961,-0.7961,-0.7954,-0.7953,-0.7953,-0.7953,0,-0.8121,-0.8112,-0.811,-0.8091,-0.8083,-0.8076,-0.8058,-0.8052,-0.8042,-0.803,-0.8019,-0.8004,-0.7989,-0.7985,-0.7975,-0.7972,-0.797,-0.7962,-0.7954,-0.7962,-0.7963,-0.7963,-0.7955,-0.7955,-0.7954,-0.7954,0,0,-0.8143,-0.8115,-0.8115,-0.8106,-0.8086,-0.8078,-0.8071,-0.8056,-0.805,-0.8037,-0.803,-0.8015,-0.8007,-0.7998,-0.7987,-0.7983,-0.7987,-0.7975,-0.7975,-0.7977,-0.7982,-0.7987,-0.7987,-0.798,-0.798,-0.798,-0.7983,0,-0.8149,-0.8134,-0.8119,-0.811,-0.8101,-0.8084,-0.8078,-0.8064,-0.8053,-0.8043,-0.8031,-0.802,-0.8011,-0.8006,-0.8001,-0.7987,-0.7987,-0.7987,-0.7972,-0.7972,-0.7976,-0.7988,-0.7993,-0.7997,-0.7983,-0.7983,-0.7983,0,-0.8154,-0.8141,-0.8131,-0.8111,-0.8107,-0.8101,-0.8086,-0.8077,-0.8062,-0.8054,-0.8044,-0.8031,-0.8022,-0.8015,-0.8002,-0.8002,-0.7995,-0.7987,-0.7987,-0.7984,-0.7977,-0.7985,-0.7997,-0.7998,-0.7983,-0.7983,-0.7983,0,-0.8169,-0.815,-0.8141,-0.8134,-0.8111,-0.8107,-0.8098,-0.8082,-0.8074,-0.8061,-0.8056,-0.8042,-0.8034,-0.8024,-0.8008,-0.8005,-0.7996,-0.7988,-0.7988,-0.7989,-0.7986,-0.7986,-0.7997,-0.7983,-0.7983,-0.7983,-0.7983,0,-0.8177,-0.8171,-0.8148,-0.8142,-0.8135,-0.8118,-0.8111,-0.81,-0.8086,-0.8078,-0.8063,-0.8056,-0.8036,-0.8026,-0.8014,-0.8004,-0.8001,-0.7993,-0.799,-0.7994,-0.7995,-0.7989,-0.7988,-0.7984,-0.7984,-0.7984,-0.7984,0,-0.8193,-0.8177,-0.8166,-0.8146,-0.814,-0.8136,-0.8118,-0.8111,-0.8099,-0.8089,-0.8086,-0.8066,-0.8054,-0.8037,-0.802,-0.8011,-0.8003,-0.7998,-0.8008,-0.8006,-0.8007,-0.8006,-0.8013,-0.8013,-0.8,-0.8,-0.8,0,-0.8198,-0.8193,-0.8172,-0.8165,-0.8156,-0.8146,-0.8137,-0.8121,-0.8113,-0.8095,-0.809,-0.8077,-0.8065,-0.8045,-0.803,-0.8016,-0.801,-0.8013,-0.8008,-0.8012,-0.8009,-0.8009,-0.8008,-0.8015,-0.8015,-0.8015,-0.8015,0,-0.8209,-0.8201,-0.819,-0.8176,-0.8167,-0.8155,-0.8143,-0.8138,-0.8118,-0.811,-0.8097,-0.8088,-0.807,-0.8056,-0.804,-0.803,-0.8019,-0.8017,-0.8016,-0.802,-0.8026,-0.8022,-0.8011,-0.8017,-0.8017,-0.8017,-0.8016,-0.8016,-0.8219,-0.8213,-0.8198,-0.8185,-0.8174,-0.8163,-0.8156,-0.8143,-0.8132,-0.8116,-0.8107,-0.8094,-0.8078,-0.8056,-0.8046,-0.8035,-0.8031,-0.803,-0.803,-0.803,-0.803,-0.8028,-0.8032,-0.8032,-0.8032,-0.8032,-0.8032,0,-0.8228,-0.8217,-0.8206,-0.8189,-0.818,-0.8171,-0.8156,-0.8149,-0.8138,-0.8124,-0.8113,-0.8098,-0.8084,-0.8068,-0.8053,-0.8048,-0.8043,-0.8045,-0.8044,-0.8042,-0.8035,-0.8037,-0.8049,-0.8049,-0.8049,-0.8049,-0.8049,-0.8049,-0.8232,-0.8222,-0.8212,-0.8197,-0.8186,-0.8173,-0.8166,-0.8155,-0.8144,-0.8128,-0.8117,-0.8106,-0.8091,-0.8075,-0.8062,-0.8058,-0.8053,-0.8056,-0.805,-0.8044,-0.8043,-0.8041,-0.8043,-0.8056,-0.8056,-0.8057,-0.8057,-0.8057]},{"header":{"parameterUnit":"m.s-1","parameterCategory":1,"la1":30.2991,"la2":30.254,"lo1":-89.0895,"lo2":-89.0444,"dy":0.0017,"dx":0.0017,"nx":28,"ny":28,"refTime":"2025-02-08T09:00:00:Z","depth":0,"parameterNumber":3,"parameterNumberName":"V-component_of_WINDS"},"data":[0,0,0,0,0,0,0,0,0,0,0,0,0,0,0,0,0,0,0,0,0,0,0,0,0,0,0,0,0,0,0,0,0,0,0,0,0,0,0,0,0,0,0,0,0,0,0,0,0,0,0,0,0,0,0,0,0,0,2.826,2.8261,0,2.8395,2.8397,2.8398,2.8422,2.8421,2.842,2.8419,2.8559,2.8563,2.8568,0,0,0,0,0,0,0,0,0,0,0,0,0,2.8023,2.8028,2.826,2.8261,2.8263,2.8395,2.8397,2.8399,2.8423,2.8421,2.842,2.8418,2.8557,2.8563,2.8569,0,0,0,0,0,0,0,0,0,0,0,0,0,2.8139,2.8029,2.8259,2.8291,2.8295,2.8394,2.8397,2.8399,2.8423,2.8421,2.8419,2.8418,2.8555,2.8562,2.8569,2.8647,0,0,2.8591,2.8594,0,0,0,0,0,0,0,0,2.8133,2.8148,2.8284,2.8289,2.8294,2.839,2.8365,2.8482,2.8423,2.8374,2.8419,2.8417,2.8504,2.8515,2.8545,2.8654,2.866,2.8592,2.8596,2.8599,2.8601,0,0,0,0,0,0,0,2.8125,2.8142,2.8313,2.8286,2.8292,2.8299,2.8313,2.8387,2.8447,2.8378,2.8381,2.8396,2.8506,2.8538,2.8548,2.8662,2.8592,2.8598,2.8602,2.8605,2.8844,2.8846,0,0,0,0,0,0,2.8111,2.8135,2.8309,2.8317,2.8207,2.8304,2.8321,2.8361,2.8446,2.8458,2.8397,2.8397,2.8526,2.854,2.8553,2.8652,2.8599,2.8606,2.861,2.8842,2.8845,2.8847,0,0,0,0,0,0,2.8106,2.8126,2.8303,2.8227,2.825,2.831,2.8355,2.8364,2.8396,2.8461,2.8472,2.8418,2.8525,2.8543,2.8624,2.8657,2.8609,2.8616,2.884,2.8843,2.8846,2.8849,0,0,0,0,0,0,2.8099,2.8124,2.8154,2.8227,2.8254,2.8372,2.8357,2.8368,2.8408,2.8408,2.8483,2.8494,2.8525,2.8613,2.8631,2.8666,2.8621,2.8837,2.8841,2.8845,2.8846,2.8852,2.8856,0,0,0,0,0,2.809,2.8149,2.8155,2.8176,2.8292,2.8374,2.8389,2.8424,2.841,2.8441,2.8483,2.8492,2.865,2.8621,2.8642,2.8679,2.8835,2.884,2.8845,2.8844,2.8851,2.8856,0,0,0,0,0,0,2.8078,2.8159,2.8167,2.8251,2.8305,2.8378,2.8418,2.8429,2.8489,2.8487,2.8527,2.8544,2.8624,2.8659,2.8626,2.876,2.8742,2.8751,2.8734,2.8741,2.8746,2.8737,2.8627,0,0,0,0,0,2.8085,2.8143,2.8211,2.8279,2.8306,2.8357,2.8394,2.8416,2.8474,2.8497,2.8545,2.8601,2.8664,2.8704,2.8765,2.8851,2.8869,2.8887,2.8892,2.8895,2.8903,2.8954,2.8963,2.8862,2.8862,2.8862,0,0,2.81,2.8152,2.8186,2.8278,2.8323,2.8384,2.8376,2.844,2.8486,2.8507,2.8587,2.8624,2.8689,2.8774,2.8813,2.8806,2.8935,2.8901,2.8904,2.891,2.8959,2.8969,2.8977,2.8865,2.8865,2.8864,0,0,2.816,2.8204,2.8266,2.8311,2.8378,2.8412,2.8427,2.8498,2.8523,2.8604,2.8621,2.8676,2.8783,2.883,2.8867,2.8945,2.8956,2.8963,2.8991,2.904,2.9048,2.9055,2.9085,2.9095,2.8971,2.8971,2.8971,0,2.817,2.8262,2.8297,2.8361,2.8402,2.8422,2.8487,2.8528,2.8613,2.8641,2.8631,2.8766,2.8811,2.8908,2.8927,2.8956,2.8976,2.8956,2.9043,2.9051,2.9058,2.9088,2.9099,2.8971,2.8971,2.8971,2.8971,0,2.8273,2.8337,2.8379,2.846,2.8505,2.8569,2.8614,2.8656,2.8674,2.8709,2.8792,2.8847,2.892,2.8944,2.8962,2.9044,2.9038,2.9035,2.9018,2.9068,2.9096,2.9108,2.8972,2.8972,2.8972,2.8972,0,0,2.833,2.8429,2.8445,2.8482,2.8559,2.8609,2.8674,2.8746,2.8782,2.8838,2.8896,2.8985,2.8984,2.9026,2.905,2.9092,2.9153,2.9085,2.9087,2.9097,2.9249,2.9252,2.9265,2.9159,2.9162,2.9163,2.9244,0,2.84,2.8517,2.855,2.865,2.871,2.873,2.8787,2.8841,2.8875,2.8932,2.8969,2.9033,2.9025,2.9052,2.9094,2.9136,2.9184,2.9131,2.9215,2.9217,2.92,2.9279,2.9282,2.9356,2.9255,2.9257,2.9259,0,2.8498,2.8558,2.8663,2.8733,2.8759,2.881,2.8879,2.8932,2.8994,2.9016,2.9064,2.9084,2.9154,2.9131,2.9229,2.9192,2.9228,2.9254,2.9257,2.9269,2.9243,2.9294,2.938,2.9392,2.9276,2.9274,2.9273,0,2.8532,2.8638,2.8716,2.8747,2.883,2.8865,2.8901,2.8961,2.9002,2.9063,2.909,2.9158,2.9196,2.9248,2.9286,2.9265,2.9381,2.9361,2.9403,2.9403,2.9429,2.9427,2.9524,2.9448,2.9447,2.9447,2.9447,0,2.8609,2.8673,2.8732,2.878,2.8853,2.889,2.8961,2.8999,2.9051,2.9108,2.9129,2.9181,2.9227,2.9285,2.9315,2.9393,2.9409,2.943,2.9438,2.943,2.9428,2.9456,2.9453,2.945,2.945,2.9449,2.9448,0,2.866,2.8702,2.8788,2.8859,2.8878,2.8929,2.8991,2.9038,2.9073,2.9144,2.9163,2.9218,2.9288,2.933,2.9419,2.9439,2.9526,2.953,2.9506,2.951,2.955,2.9547,2.9671,2.969,2.9598,2.9599,2.96,0,2.8707,2.8757,2.8834,2.8873,2.891,2.8972,2.9015,2.9053,2.9097,2.9171,2.921,2.9282,2.9341,2.9453,2.9501,2.957,2.9578,2.9616,2.9588,2.9579,2.9581,2.9579,2.9585,2.9622,2.9623,2.9623,2.9624,0,2.8787,2.8806,2.8866,2.8935,2.8985,2.9041,2.9096,2.9127,2.9175,2.9223,2.9295,2.9341,2.9433,2.9504,2.9577,2.9615,2.9629,2.9632,2.9646,2.9639,2.9624,2.9635,2.9521,2.9629,2.9629,2.9628,2.9628,2.9628,2.884,2.8886,2.8948,2.9015,2.9061,2.9112,2.9161,2.9202,2.9263,2.934,2.9359,2.9435,2.9497,2.9596,2.9635,2.9696,2.969,2.971,2.9715,2.972,2.9722,2.9612,2.9709,2.9709,2.9709,2.9709,2.9709,0,2.8924,2.8964,2.9026,2.9103,2.9156,2.9163,2.9224,2.9269,2.9336,2.9391,2.945,2.9533,2.9603,2.9657,2.9728,2.9767,2.9775,2.9785,2.9784,2.9793,2.9722,2.9704,2.9777,2.9777,2.9777,2.9777,2.9777,2.9777,2.8974,2.9053,2.9079,2.9181,2.9222,2.9297,2.9332,2.938,2.9425,2.9517,2.9575,2.9609,2.9665,2.9741,2.9806,2.982,2.9846,2.9855,2.9871,2.9805,2.9797,2.979,2.9774,2.986,2.986,2.9937,2.9938,2.9938]}]]